Regional Weather Roundup
Issued by NWS

Home | Current Version | Previous Version | Graphics & Text | Print | Product List | Glossary On
Versions: 1 2 3 4 5 6 7 8 9 10 11 12 13 14 15 16 17 18 19 20 21 22 23 24 25 26 27 28 29 30 31 32 33 34 35 36 37 38 39 40 41 42 43 44 45 46 47 48 49 50
000
ASUS43 KDMX 300606
RWRIA

WEATHER ROUNDUP FOR IOWA
NATIONAL WEATHER SERVICE DES MOINES IA
100 AM CDT THU MAR 30 2017

NOTE: "FAIR" INDICATES FEW OR NO CLOUDS BELOW 12,000 FEET WITH NO
SIGNIFICANT WEATHER AND/OR OBSTRUCTIONS TO VISIBILITY.

* - THESE STATIONS ARE NOT NWS STATIONS...THUS NOT UNDER NWS
QUALITY CONTROL.  THEY ALSO DO NOT REPORT WEATHER SUCH
AS PRECIPITATION OR FOG.

IAZ001>003-012>014-020>022-031>034-043>046-300700-
   NORTHWEST IOWA

CITY           SKY/WX    TMP DP  RH WIND       PRES   REMARKS
CARROLL *      CLOUDY    41  41 100 E16G25    29.81F
CHEROKEE *     CLOUDY    39  38  95 E16G22    29.89S WCI  30
DENISON *      CLOUDY    39  39 100 E22       29.80F WCI  29
LE MARS *      CLOUDY    41  37  87 NE14G21   29.90F
ORANGE CITY *  CLOUDY    39  37  93 E15G23    29.90F WCI  31
SHELDON *      CLOUDY    39  36  87 E17G29    29.90F WCI  30
SIOUX CITY     LGT RAIN  40  37  89 E17       29.86F WCI  31
6HR MIN TEMP:  40; 6HR MAX TEMP:  42; 6HR PCP: TRACE;

SPENCER        CLOUDY    39  37  92 E22G31    29.91S WCI  29
6HR MIN TEMP:  39; 6HR MAX TEMP:  40; 6HR PCP:  0.03;

STORM LAKE *   CLOUDY    37  37 100 E18G26    29.86S WCI  27
$$

IAZ055>058-069>071-079>083-090>094-300700-
   SOUTHWEST IOWA

CITY           SKY/WX    TMP DP  RH WIND       PRES   REMARKS
ATLANTIC *     CLOUDY    43  41  93 E14G21    29.75F
AUDUBON *      CLOUDY    41  37  87 E16G23    29.78F
CLARINDA *     CLOUDY    46  45  93 E12G23    29.69F
COUNCIL BLFS * CLOUDY    43  43 100 NE17G24   29.71F
CRESTON *      LGT RAIN  43  43 100 E18       29.75F
HARLAN  *      CLOUDY    43  43 100 NE17      29.79F
LAMONI         CLOUDY    45  44  97 NE17G23   29.71F
6HR MIN TEMP:  45; 6HR MAX TEMP:  49; 6HR PCP:  0.22;

RED OAK *      CLOUDY    45  43  93 NE18      29.69F
SHENANDOAH *   CLOUDY    46  43  87 NE21G29   29.65F
$$

IAZ047>049-059>061-072>074-084-300700-
   CENTRAL IOWA

CITY           SKY/WX    TMP DP  RH WIND       PRES   REMARKS
AMES           CLOUDY    41  41 100 E16G23    29.82F
6HR MIN TEMP:  40; 6HR MAX TEMP:  42; 6HR PCP:  0.25;

ANKENY *       CLOUDY    43  39  87 E15G24    29.80F
BOONE *        CLOUDY    39  39 100 E21G29    29.81S WCI  29
CHARITON *     CLOUDY    43  43 100 NE15G21   29.74F FOG
DES MOINES     CLOUDY    44  41  89 E13G24    29.79F
6HR MIN TEMP:  44; 6HR MAX TEMP:  45; 6HR PCP:  0.71;

GRINNELL*      CLOUDY    41  39  94 E20G25    29.83F
MARSHALLTOWN   CLOUDY    41  39  93 E23       29.82F
6HR MIN TEMP:  40; 6HR MAX TEMP:  42; 6HR PCP:  0.22;

NEWTON *       CLOUDY    41  39  93 E22G32    29.78F
PELLA *        LGT RAIN  42  41  98 E16G24    29.80F
PERRY *        CLOUDY    42  40  91 E15       29.81F
$$

IAZ004>006-015-016-023>025-035-036-300700-
   NORTH CENTRAL IOWA

CITY           SKY/WX    TMP DP  RH WIND       PRES   REMARKS
ALGONA *       MIX PCPN  39  39 100 E20G26    29.89R WCI  30
CLARION *      CLOUDY    39  39 100 E25G33    29.85F WCI  28
ESTHERVILLE    CLOUDY    38  38 100 NE16      29.91F WCI  29
6HR MIN TEMP:  38; 6HR MAX TEMP:  39; 6HR PCP:  0.10;

FORT DODGE *   CLOUDY    39  36  87 E20G28    29.86F WCI  30
MASON CITY     CLOUDY    38  37  97 E22G31    29.90F WCI  27
6HR MIN TEMP:  38; 6HR MAX TEMP:  39; 6HR PCP:  0.23;

FOREST CITY *  LGT RAIN  37  36  93 E20G28    29.89F WCI  27
WEBSTER CITY * CLOUDY    39  37  93 E24       29.82F WCI  28
IOWA FALLS *   CLOUDY    40  38  93 E17G23    29.87R WCI  31
$$

IAZ007>011-017>019-026>030-037>042-050>054-066-300700-
   NORTHEAST IOWA

CITY           SKY/WX    TMP DP  RH WIND       PRES   REMARKS
CEDAR RAPIDS   LGT RAIN  41  41 100 E22G29    29.85F FOG
6HR MIN TEMP:  41; 6HR MAX TEMP:  43; 6HR PCP:  0.21;

CHARLES CITY * CLOUDY    39  39 100 E21G28    29.90F FOG     WCI  29
CLINTON *      LGT RAIN  43  39  86 E22G31    29.88R
DECORAH *      MIX PCPN  37  36  93 E17G24    29.95F WCI  28
DUBUQUE        LGT RAIN  40  38  93 E21G29    29.91F WCI  30
6HR MIN TEMP:  39; 6HR MAX TEMP:  40; 6HR PCP:  0.15;

MONTICELLO *   LGT RAIN  41  39  93 E12G20    29.90R
OELWEIN *      LGT RAIN  39  39 100 E21G28    29.91F WCI  29
WATERLOO       CLOUDY    40  37  89 E15G28    29.89F WCI  32
6HR MIN TEMP:  39; 6HR MAX TEMP:  41; 6HR PCP:  0.19;

$$

IAZ064-065-067-068-078-300700-
   EAST CENTRAL IOWA

CITY           SKY/WX    TMP DP  RH WIND       PRES   REMARKS
DAVENPORT      RAIN      42  39  89 NE13G20   29.91R FOG
6HR MIN TEMP:  42; 6HR MAX TEMP:  44; 6HR PCP:  0.15;

IOWA CITY      HVY RAIN  44  40  85 E15G24    29.86F FOG
6HR MIN TEMP:  43; 6HR MAX TEMP:  46; 6HR PCP:  0.36;

MUSCATINE *    MIX PCPN  43  41  93 E17       29.82F
QUAD CITIES    TSTM      44  40  85 E16       29.87R FOG
6HR MIN TEMP:  43; 6HR MAX TEMP:  46; 6HR PCP:  0.20;

$$

IAZ062-063-075>077-085>089-095>099-300700-
   SOUTHEAST IOWA

CITY           SKY/WX    TMP DP  RH WIND       PRES   REMARKS
BURLINGTON     LGT RAIN  47  46  97 NE14G24   29.77F
6HR MIN TEMP:  47; 6HR MAX TEMP:  49; 6HR PCP:  0.30;

FAIRFIELD *    CLOUDY    45  43  93 E18G25    29.78F
FORT MADISON * LGT RAIN  46  46 100 NE16      29.75F
KEOKUK *       CLOUDY    48  46  93 NE14G21   29.71F
OSKALOOSA *    LGT RAIN  42  41  95 NE18      29.79F
CENTERVILLE *  RAIN      45  45 100 NE23      29.70F
OTTUMWA        LGT RAIN  44  43  96 NE20      29.77F FOG
6HR MIN TEMP:  44; 6HR MAX TEMP:  47; 6HR PCP:  0.15;

WASHINGTON *   LGT RAIN  43  43 100 E21G26    29.81F
$$

ABBREVIATIONS USED IN REMARKS
   TC - TEMPERATURES IN CELSIUS
  WCI - WIND CHILL INDEX
   HX - HEAT INDEX
  VSB - VISIBILITY
$$





USA.gov is the U.S. government's official web portal to all federal, state and local government web resources and services.